Hourly Data Report for September 25, 2017

All times are specified in Local Standard Time (LST). Add 1 hour to adjust for Daylight Saving Time where and when it is observed.

POND INLET A
NUNAVUT

72°41'22.000" N
77°58'08.000" W
61.60 m
2403206
71095
YIO

Download Data

Hourly Data (September 2017)
Hourly Data Report for September 25, 2017
Temp Definition
°C
Dew Point Temp Definition
°C
Rel Hum Definition
%
Wind Dir Definition
10's deg

Wind Spd Definition
km/h
Visibility Definition
km
Stn Press Definition
kPa
Hmdx Definition


Wind Chill Definition


Weather Definition


TIME
00:00 Legend Double Dagger -4.9 -6.4 89 16 15 16.1 100.00   -10 LegendNANA
01:00 Legend Double Dagger -4.0 -5.7 88 15 21 16.1 99.98   -10 LegendNANA
02:00 Legend Double Dagger -4.3 -6.0 88 16 18 16.1 99.96   -10 LegendNANA
03:00 Legend Double Dagger -4.6 -6.1 89 18 18 16.1 99.97   -11 LegendNANA
04:00 Legend Double Dagger -7.1 -8.8 88 15 24 16.1 99.97   -15 LegendNANA
05:00 Legend Double Dagger -4.1 -6.7 82 26 26 16.1 99.98   -11 LegendNANA
06:00 Legend Double Dagger -5.7 -8.6 80 19 22 16.1 100.02   -13 LegendNANA
07:00 Legend Double Dagger -5.7 -7.8 85 20 24 16.1 100.01   -13 LegendNANA
08:00 Legend Double Dagger -3.8 -6.8 80 25 28 16.1 100.04   -11 LegendNANA
09:00 Legend Double Dagger -3.4 -7.2 75 24 21 16.1 100.06   -10 LegendNANA
10:00 Legend Double Dagger -3.2 -6.9 76 24 13 16.1 100.07   -8 LegendNANA
11:00 Legend Double Dagger -3.1 -6.2 79 17 17 16.1 100.06   -9 LegendNANA
12:00 Legend Double Dagger -2.3 -6.0 76 21 17 16.1 100.12   -8 LegendNANA
13:00 Legend Double Dagger -1.7 -5.9 73 26 8 16.1 100.17   -5 LegendNANA
14:00 Legend Double Dagger -1.4 -6.0 71 19 8 16.1 100.20   -4 LegendNANA
15:00 Legend Double Dagger -1.7 -5.9 73   0 16.1 100.23     LegendNANA
16:00 Legend Double Dagger -1.9 -6.1 73   0 16.1 100.27     LegendNANA
17:00 Legend Double Dagger -2.5 -6.3 75   0 16.1 100.30     LegendNANA
18:00 Legend Double Dagger -3.0 -6.7 76 15 5 16.1 100.34   -5 LegendNANA
19:00 Legend Double Dagger -3.1 -6.9 75   0 16.1 100.37     LegendNANA
20:00 Legend Double Dagger -2.8 -6.8 74 20 8 16.1 100.39   -6 LegendNANA
21:00 Legend Double Dagger -3.3 -7.5 73 16 8 16.1 100.41   -7 LegendNANA
22:00 Legend Double Dagger -6.3 -9.4 79 15 18 16.1 100.42   -13 LegendNANA
23:00 Legend Double Dagger -7.6 -10.3 81 14 21 16.1 100.44   -15 LegendNANA

Notes on Data Quality.

Legend

  • E = Estimated
  • M = Missing
  • NA = Not Available
  • ‡ = Partner data that is not subject to review by the National Climate Archives
Date modified: